Meteo pe oră la Abdrashitovo

Astăzi, 24 Iulie, Sâmbătă

Timp Temperatura Precipitaţii Vânt Presiune Umiditate
00:00 +14°C° 0 mm 0 m/s 734 mmHg 81%
01:00 +14°C° 0 mm 0 m/s 733 mmHg 81%
02:00 +14°C° 0 mm 0 m/s 734 mmHg 82%
03:00 +14°C° 0 mm 0 m/s 734 mmHg 82%
04:00 +14°C° 0 mm 0 m/s 734 mmHg 83%
05:00 +15°C° 0 mm 0 m/s 734 mmHg 80%
06:00 +16°C° 0 mm 0 m/s 734 mmHg 76%
07:00 +17°C° 0 mm 0 m/s 734 mmHg 73%
08:00 +18°C° 0 mm 0 m/s 735 mmHg 65%
09:00 +22°C° 0 mm 1 m/s 735 mmHg 58%
10:00 +23°C° 0 mm 1 m/s 735 mmHg 50%
11:00 +24°C° 0 mm 1 m/s 735 mmHg 48%
12:00 +24°C° 0 mm 1 m/s 735 mmHg 46%
13:00 +25°C° 0 mm 1 m/s 735 mmHg 43%
14:00 +24°C° 0 mm 2 m/s 735 mmHg 45%
15:00 +24°C° 0 mm 2 m/s 735 mmHg 47%
16:00 +24°C° 0 mm 3 m/s 735 mmHg 48%
17:00 +23°C° 0 mm 2 m/s 735 mmHg 53%
18:00 +21°C° 0 mm 2 m/s 736 mmHg 57%
19:00 +21°C° 0 mm 1 m/s 736 mmHg 62%
20:00 +19°C° 0 mm 1 m/s 736 mmHg 67%
21:00 +18°C° 0 mm 1 m/s 736 mmHg 72%
22:00 +16°C° 0 mm 2 m/s 737 mmHg 78%
23:00 +15°C° 0.1 mm 2 m/s 737 mmHg 81%

Mâine, 25 Iulie, Duminică

Timp Temperatura Precipitaţii Vânt Presiune Umiditate
00:00 +15°C° 0.1 mm 2 m/s 737 mmHg 84%
01:00 +15°C° 0.1 mm 2 m/s 737 mmHg 87%
02:00 +14°C° 0.1 mm 2 m/s 738 mmHg 90%
03:00 +14°C° 0.1 mm 2 m/s 738 mmHg 93%
04:00 +13°C° 0.1 mm 2 m/s 738 mmHg 95%
05:00 +13°C° 0 mm 3 m/s 739 mmHg 91%
06:00 +13°C° 0 mm 3 m/s 740 mmHg 88%
07:00 +13°C° 0 mm 4 m/s 740 mmHg 84%
08:00 +15°C° 0 mm 4 m/s 741 mmHg 75%
09:00 +17°C° 0 mm 4 m/s 741 mmHg 66%
10:00 +19°C° 0 mm 4 m/s 741 mmHg 57%
11:00 +19°C° 0 mm 4 m/s 741 mmHg 54%
12:00 +19°C° 0 mm 4 m/s 742 mmHg 52%
13:00 +19°C° 0 mm 4 m/s 742 mmHg 49%
14:00 +19°C° 0 mm 4 m/s 742 mmHg 45%
15:00 +20°C° 0 mm 3 m/s 742 mmHg 42%
16:00 +20°C° 0 mm 3 m/s 743 mmHg 38%
17:00 +20°C° 0 mm 3 m/s 743 mmHg 41%
18:00 +19°C° 0 mm 3 m/s 743 mmHg 43%
19:00 +18°C° 0 mm 4 m/s 743 mmHg 46%
20:00 +16°C° 0 mm 3 m/s 744 mmHg 51%
21:00 +14°C° 0 mm 3 m/s 744 mmHg 56%
22:00 +13°C° 0 mm 2 m/s 744 mmHg 61%
23:00 +12°C° 0 mm 2 m/s 745 mmHg 64%

Poimâine, 26 Iulie, Luni

Timp Temperatura Precipitaţii Vânt Presiune Umiditate
00:00 +11°C° 0 mm 1 m/s 745 mmHg 67%
01:00 +10°C° 0 mm 1 m/s 745 mmHg 70%
02:00 +10°C° 0 mm 1 m/s 745 mmHg 73%
03:00 +9°C° 0 mm 1 m/s 746 mmHg 76%
04:00 +9°C° 0 mm 1 m/s 746 mmHg 79%
05:00 +10°C° 0 mm 1 m/s 746 mmHg 73%
06:00 +12°C° 0 mm 2 m/s 746 mmHg 67%
07:00 +14°C° 0 mm 2 m/s 747 mmHg 60%
08:00 +14°C° 0 mm 3 m/s 747 mmHg 54%
09:00 +16°C° 0 mm 3 m/s 747 mmHg 48%
10:00 +17°C° 0 mm 4 m/s 747 mmHg 41%
11:00 +18°C° 0 mm 4 m/s 747 mmHg 40%
12:00 +19°C° 0 mm 3 m/s 746 mmHg 39%
13:00 +19°C° 0 mm 3 m/s 746 mmHg 37%
14:00 +19°C° 0 mm 3 m/s 746 mmHg 40%
15:00 +19°C° 0 mm 3 m/s 746 mmHg 43%
16:00 +19°C° 0 mm 3 m/s 746 mmHg 46%
17:00 +18°C° 0 mm 3 m/s 746 mmHg 49%
18:00 +18°C° 0 mm 3 m/s 745 mmHg 52%
19:00 +17°C° 0 mm 3 m/s 745 mmHg 55%
20:00 +17°C° 0 mm 3 m/s 745 mmHg 57%
21:00 +16°C° 0 mm 2 m/s 745 mmHg 58%
22:00 +16°C° 0 mm 2 m/s 745 mmHg 60%
23:00 +14°C° 0 mm 2 m/s 745 mmHg 64%

27 Iulie, Marţi

Timp Temperatura Precipitaţii Vânt Presiune Umiditate
00:00 +13°C° 0 mm 2 m/s 745 mmHg 68%
01:00 +12°C° 0 mm 2 m/s 745 mmHg 72%
02:00 +12°C° 0 mm 2 m/s 745 mmHg 74%
03:00 +10°C° 0 mm 2 m/s 745 mmHg 76%
04:00 +10°C° 0 mm 2 m/s 745 mmHg 77%
05:00 +13°C° 0 mm 2 m/s 744 mmHg 72%
06:00 +14°C° 0 mm 2 m/s 744 mmHg 67%
07:00 +16°C° 0 mm 3 m/s 744 mmHg 63%
08:00 +17°C° 0 mm 3 m/s 744 mmHg 58%
09:00 +19°C° 0 mm 4 m/s 744 mmHg 54%
10:00 +20°C° 0 mm 5 m/s 743 mmHg 50%
11:00 +21°C° 0 mm 5 m/s 743 mmHg 49%
12:00 +21°C° 0 mm 5 m/s 743 mmHg 48%
13:00 +22°C° 0 mm 5 m/s 742 mmHg 47%
14:00 +20°C° 0.2 mm 5 m/s 742 mmHg 58%
15:00 +19°C° 0.2 mm 5 m/s 742 mmHg 68%
16:00 +16°C° 0.2 mm 5 m/s 742 mmHg 79%
17:00 +17°C° 0.3 mm 4 m/s 741 mmHg 83%
18:00 +15°C° 0.3 mm 4 m/s 741 mmHg 87%
19:00 +16°C° 0.3 mm 3 m/s 741 mmHg 91%
20:00 +14°C° 0.3 mm 3 m/s 741 mmHg 93%
21:00 +14°C° 0.3 mm 2 m/s 741 mmHg 95%
22:00 +13°C° 0.3 mm 2 m/s 741 mmHg 97%
23:00 +12°C° 0 mm 2 m/s 741 mmHg 96%

28 Iulie, Miercuri

Timp Temperatura Precipitaţii Vânt Presiune Umiditate
00:00 +12°C° 0 mm 1 m/s 741 mmHg 96%
01:00 +11°C° 0 mm 1 m/s 741 mmHg 95%
02:00 +11°C° 0 mm 1 m/s 741 mmHg 95%
03:00 +11°C° 0 mm 1 m/s 741 mmHg 95%
04:00 +10°C° 0 mm 1 m/s 741 mmHg 94%
05:00 +12°C° 0 mm 1 m/s 741 mmHg 91%
06:00 +13°C° 0 mm 2 m/s 741 mmHg 88%
07:00 +14°C° 0 mm 2 m/s 741 mmHg 85%
08:00 +16°C° 0 mm 3 m/s 741 mmHg 72%
09:00 +17°C° 0 mm 4 m/s 741 mmHg 60%
10:00 +19°C° 0 mm 5 m/s 741 mmHg 48%
11:00 +20°C° 0 mm 5 m/s 741 mmHg 45%
12:00 +21°C° 0 mm 5 m/s 740 mmHg 42%
13:00 +22°C° 0 mm 6 m/s 740 mmHg 40%
14:00 +20°C° 0.1 mm 5 m/s 740 mmHg 47%
15:00 +19°C° 0.1 mm 3 m/s 740 mmHg 55%
16:00 +18°C° 0.1 mm 2 m/s 740 mmHg 62%
17:00 +18°C° 0.1 mm 3 m/s 740 mmHg 65%
18:00 +18°C° 0.1 mm 4 m/s 740 mmHg 68%
19:00 +18°C° 0.1 mm 4 m/s 740 mmHg 70%
20:00 +16°C° 0.1 mm 3 m/s 740 mmHg 77%
21:00 +15°C° 0.1 mm 2 m/s 740 mmHg 84%
22:00 +13°C° 0.1 mm 1 m/s 740 mmHg 90%
23:00 +13°C° 0 mm 1 m/s 740 mmHg 91%

29 Iulie, Joi

Timp Temperatura Precipitaţii Vânt Presiune Umiditate
00:00 +13°C° 0 mm 2 m/s 740 mmHg 91%
01:00 +12°C° 0 mm 2 m/s 740 mmHg 92%
02:00 +12°C° 0 mm 2 m/s 739 mmHg 91%
03:00 +13°C° 0 mm 2 m/s 739 mmHg 90%
04:00 +12°C° 0 mm 3 m/s 739 mmHg 90%
05:00 +12°C° 0.4 mm 3 m/s 739 mmHg 90%
06:00 +12°C° 0.4 mm 3 m/s 738 mmHg 91%
07:00 +12°C° 0.4 mm 3 m/s 738 mmHg 92%
08:00 +14°C° 0.3 mm 4 m/s 738 mmHg 92%
09:00 +15°C° 0.3 mm 4 m/s 738 mmHg 91%
10:00 +16°C° 0.3 mm 5 m/s 738 mmHg 91%
11:00 +17°C° 0.7 mm 5 m/s 738 mmHg 88%
12:00 +19°C° 0.7 mm 5 m/s 738 mmHg 84%
13:00 +20°C° 0.7 mm 5 m/s 738 mmHg 81%
14:00 +21°C° 0.6 mm 5 m/s 738 mmHg 79%
15:00 +21°C° 0.6 mm 5 m/s 738 mmHg 77%
16:00 +22°C° 0.6 mm 5 m/s 738 mmHg 76%
17:00 +21°C° 0.5 mm 4 m/s 738 mmHg 79%
18:00 +20°C° 0.5 mm 3 m/s 738 mmHg 83%
19:00 +19°C° 0.5 mm 2 m/s 738 mmHg 87%
20:00 +18°C° 0.1 mm 1 m/s 738 mmHg 88%
21:00 +16°C° 0.1 mm 1 m/s 739 mmHg 90%
22:00 +15°C° 0.1 mm 1 m/s 739 mmHg 91%
23:00 +15°C° 0 mm 1 m/s 739 mmHg 92%
Arată mai mult

Formular de consimțământ

Meteoprog și furnizorii noștri de servicii pot stoca și accesa date personale, precum cookies, identificatori de dispozitiv sau alte tehnologii similare pe dispozitivul dumneavoastră și procesa astfel de date pentru a personaliza conținutul și reclamele, dar și pentru a oferi caracteristici de social media și pentru a analiza traficul.

  • Stocarea și/sau accesarea informațiilor pe dispozitivul dumneavoastră

    Cookies, identificatori de dispozitiv sau alte informații pot fi stocate sau accesate pe dispozitiv în scopurile indicate mai sus.

  • Reclame și conținut personalizat, evaluarea reclamelor și a conținutului, informații despre audiențe și dezvoltarea produselor

    Reclamele și conținutul pot fi personalizate pe baza unui profil. Pot fi adăugate date suplimentare pentru a personaliza mai bine reclamele și conținutul. Performanța reclamelor și conținutului poate fi măsurată. Pot fi obținute informații despre utilizatorii care au văzut reclamele și conținutul. Aceste date pot fi utilizate pentru a dezvolta sau îmbunătăți experiența utilizatorilor, sistemele și software-ul.

Dând clic pe ‘Sunt de acord’, permiteți utilizarea cookie-urilor menționate, a identificatorilor de dispozitiv, balizelor web sau altor tehnologii similare. Setările pot fi modificate din browser-ul dispozitivului dumneavoastră.

În anumite scopuri, interesele legitime pot prima asupra consimțământului. Puteți citi mai multe informații în acest sens în Politica privind Confidențialitatea Datelor și Cookie.